WL7HC Weather Reports


time (UTC)temp
F
wind
direction
speed
knots
gust
knots
rain 1hr
in
rain 24hr
in
rain mn
in
humidity
%
barometer
mb
20260903043057 79 305 0.0 0.0 0.00 0.00 0.00 87 978.0
20260903042551 80 342 0.0 0.0 0.00 0.00 0.00 87 977.9
20260903042047 80 342 0.0 0.0 0.00 0.00 0.00 86 977.8
20260903041544 80 322 0.0 0.9 0.00 0.00 0.00 85 977.7
20260903041038 80 359 0.9 0.9 0.00 0.00 0.00 85 977.9
20260903040537 81 352 0.0 0.0 0.00 0.00 0.00 85 977.9
20260903040034 80 347 1.7 1.7 0.00 0.00 0.00 85 977.7
20260903035529 80 8 0.9 1.7 0.00 0.00 0.00 85 977.8
20260903035025 80 347 0.0 0.0 0.00 0.00 0.00 86 977.9
20260903034525 80 322 0.9 1.7 0.00 0.00 0.00 85 977.5
20260903034020 80 308 0.0 0.0 0.00 0.00 0.00 85 977.4
20260903033515 81 351 0.0 1.7 0.00 0.00 0.00 85 977.3
20260903033011 81 285 0.0 0.9 0.00 0.00 0.00 85 977.3
20260903032506 81 321 0.0 2.6 0.00 0.00 0.00 84 977.6
20260903032001 81 332 0.0 0.0 0.00 0.00 0.00 83 977.3
20260903031500 81 316 0.0 0.9 0.00 0.00 0.00 84 977.2
20260903030956 81 5 0.0 1.7 0.00 0.00 0.00 84 977.3
20260903030452 81 342 0.0 0.9 0.00 0.00 0.00 84 977.3
20260903025947 81 60 1.7 2.6 0.00 0.00 0.00 84 977.4
20260903025443 81 342 0.0 0.9 0.00 0.00 0.00 84 977.3
20260903024938 81 48 1.7 1.7 0.00 0.00 0.00 83 977.2
20260903024437 81 306 0.0 0.9 0.00 0.00 0.00 83 977.2
20260903023932 80 30 0.9 2.6 0.00 0.00 0.00 83 977.1
20260903023428 80 331 0.0 0.9 0.00 0.00 0.00 84 977.0
20260903022923 80 357 0.0 0.9 0.00 0.00 0.00 85 977.1
20260903022422 80 335 0.0 0.9 0.00 0.00 0.00 85 977.4
20260903021920 79 340 0.0 0.9 0.00 0.00 0.00 86 977.7
20260903021416 80 346 0.0 0.0 0.00 0.00 0.00 85 977.7
20260903020911 79 344 0.0 0.9 0.00 0.00 0.00 85 977.9
20260903020407 79 337 0.0 0.0 0.00 0.00 0.00 85 978.0
20260903015907 79 337 0.0 0.0 0.00 0.00 0.00 85 977.8
20260903015402 79 337 0.0 0.0 0.00 0.00 0.00 85 977.7
20260903014858 80 337 0.0 0.0 0.00 0.00 0.00 85 977.7
20260903014357 80 337 0.0 0.0 0.00 0.00 0.00 84 977.8
20260903013852 80 330 0.0 0.0 0.00 0.00 0.00 83 977.8
20260903013352 79 327 0.0 0.0 0.00 0.00 0.00 85 977.8
20260903012851 80 327 0.0 0.0 0.00 0.00 0.00 84 977.7
20260903012350 80 306 0.0 0.0 0.00 0.00 0.00 84 977.6
20260903011849 80 332 0.0 0.0 0.00 0.00 0.00 83 977.7
20260903011344 80 331 0.0 0.0 0.00 0.00 0.00 84 977.6
20260903010840 80 331 0.0 0.0 0.00 0.00 0.00 83 977.6
20260903010335 80 330 0.0 0.0 0.00 0.00 0.00 83 977.5
20260903005833 80 353 0.0 0.0 0.00 0.00 0.00 83 977.6
20260903005328 80 353 0.0 0.0 0.00 0.00 0.00 83 977.4
20260903004824 80 3 0.0 0.0 0.00 0.00 0.00 83 977.5
20260903004320 81 4 0.0 0.0 0.00 0.00 0.00 82 977.3
20260903003815 81 2 0.0 0.0 0.00 0.00 0.00 81 977.2
20260903003310 81 2 0.0 0.0 0.00 0.00 0.00 81 977.1
20260903002810 81 2 0.0 0.0 0.00 0.00 0.00 80 977.0
20260903002309 82 6 0.0 0.0 0.00 0.00 0.00 80 977.1
20260903001804 82 346 0.0 0.0 0.00 0.00 0.00 79 977.1
20260903001259 83 344 0.0 0.0 0.00 0.00 0.00 78 977.2
20260903000754 83 347 0.0 0.0 0.00 0.00 0.00 76 977.1
20260903000249 83 350 0.0 0.0 0.00 0.00 0.00 75 977.1
20260902235747 84 353 0.0 0.0 0.00 0.00 0.00 74 977.3
20260902235243 84 345 0.0 0.0 0.00 0.00 0.00 73 977.2
20260902234742 85 325 0.0 0.0 0.00 0.00 0.00 73 977.1
20260902234242 85 314 0.0 0.0 0.00 0.00 0.00 71 977.1
20260902233742 86 155 0.0 0.0 0.00 0.00 0.00 70 977.3
20260902233236 86 356 0.0 1.7 0.00 0.00 0.00 70 977.1
20260902232734 87 358 0.0 0.0 0.00 0.00 0.00 70 977.2
20260902232235 87 348 0.0 0.0 0.00 0.00 0.00 69 977.1
20260902231734 87 9 0.0 1.7 0.00 0.00 0.00 69 977.2
20260902231229 88 341 0.0 0.0 0.00 0.00 0.00 69 977.3
20260902230724 88 318 0.0 0.9 0.00 0.00 0.00 68 977.2
20260902230223 88 326 0.0 2.6 0.00 0.00 0.00 66 977.1
20260902225718 89 338 0.0 0.9 0.00 0.00 0.00 65 977.1
20260902225218 89 353 0.9 1.7 0.00 0.00 0.00 64 977.3
20260902224717 89 289 0.0 0.9 0.00 0.00 0.00 66 977.1
20260902224212 89 303 0.0 0.9 0.00 0.00 0.00 63 977.2
20260902223708 89 24 1.7 1.7 0.00 0.00 0.00 64 977.1
20260902223208 90 337 0.0 0.9 0.00 0.00 0.00 65 976.9
20260902222707 90 300 1.7 2.6 0.00 0.00 0.00 63 977.2
20260902222201 90 317 1.7 2.6 0.00 0.00 0.00 63 977.2
20260902221655 90 271 0.9 1.7 0.00 0.00 0.00 62 977.2
20260902221154 90 5 0.9 1.7 0.00 0.00 0.00 63 977.2
20260902220651 90 294 2.6 3.5 0.00 0.00 0.00 61 977.2
20260902220151 91 347 0.9 2.6 0.00 0.00 0.00 62 977.3
20260902215647 91 26 0.0 1.7 0.00 0.00 0.00 64 977.5
20260902215142 91 5 1.7 2.6 0.00 0.00 0.00 63 977.3
20260902214637 91 309 3.5 5.2 0.00 0.00 0.00 60 977.2
20260902214136 91 241 0.9 2.6 0.00 0.00 0.00 61 977.3
20260902213632 91 332 0.0 1.7 0.00 0.00 0.00 60 977.2
20260902213131 91 308 1.7 2.6 0.00 0.00 0.00 59 977.4
20260902212626 91 232 0.0 1.7 0.00 0.00 0.00 59 977.3
20260902212122 91 354 1.7 1.7 0.00 0.00 0.00 60 977.5
20260902211619 91 279 0.9 2.6 0.00 0.00 0.00 59 977.6
20260902211114 91 243 0.0 1.7 0.00 0.00 0.00 62 977.6
20260902210613 91 162 0.9 3.5 0.00 0.00 0.00 63 977.6
20260902210108 90 39 1.7 3.5 0.00 0.00 0.00 60 977.5
20260902205607 90 307 0.0 0.9 0.00 0.00 0.00 62 977.5
20260902205103 91 4 1.7 3.5 0.00 0.00 0.00 59 977.9
20260902204602 92 313 0.0 0.9 0.00 0.00 0.00 64 977.6
20260902204057 93 27 0.9 1.7 0.00 0.00 0.00 60 977.8
20260902203553 93 329 0.0 0.0 0.00 0.00 0.00 61 977.8
20260902203052 93 270 0.0 3.5 0.00 0.00 0.00 61 978.0
20260902202548 92 352 0.0 2.6 0.00 0.00 0.00 58 977.9
20260902202044 93 354 2.6 2.6 0.00 0.00 0.00 57 978.0
20260902201540 93 13 1.7 2.6 0.00 0.00 0.00 58 977.9
20260902201038 92 297 0.9 0.9 0.00 0.00 0.00 60 978.2
20260902200534 92 238 0.0 1.7 0.00 0.00 0.00 59 978.2
20260902200030 91 340 0.0 0.0 0.00 0.00 0.00 61 978.4
20260902195526 92 332 0.0 2.6 0.00 0.00 0.00 59 978.4
20260902195025 92 292 0.0 2.6 0.00 0.00 0.00 57 978.3
20260902194524 92 202 0.9 3.5 0.00 0.00 0.00 59 978.5
20260902194020 92 296 0.9 3.5 0.00 0.00 0.00 60 978.5
20260902193516 93 13 0.9 3.5 0.00 0.00 0.00 56 978.5
20260902193015 94 336 0.0 3.5 0.00 0.00 0.00 57 978.6
20260902192513 94 190 0.0 5.2 0.00 0.00 0.00 59 978.4
20260902192012 93 125 0.9 3.5 0.00 0.00 0.00 58 978.7
20260902191508 93 357 1.7 3.5 0.00 0.00 0.00 58 978.8
20260902191003 94 282 0.9 1.7 0.00 0.00 0.00 60 978.7
20260902190458 95 133 0.0 1.7 0.00 0.00 0.00 59 978.6
20260902185953 94 254 0.9 1.7 0.00 0.00 0.00 57 978.7
20260902185449 93 350 0.9 1.7 0.00 0.00 0.00 60 978.8
20260902184944 93 189 1.7 2.6 0.00 0.00 0.00 57 978.6
20260902184439 93 21 0.9 1.7 0.00 0.00 0.00 57 978.6
20260902183935 93 329 1.7 2.6 0.00 0.00 0.00 55 978.8
20260902183431 93 27 0.9 2.6 0.00 0.00 0.00 53 978.8
20260902182927 93 36 1.7 2.6 0.00 0.00 0.00 56 978.9
20260902182423 93 31 2.6 3.5 0.00 0.00 0.00 56 979.0
20260902181919 94 346 3.5 7.0 0.00 0.00 0.00 55 979.0
20260902181415 93 254 0.0 0.9 0.00 0.00 0.00 62 979.0
20260902180909 92 47 0.9 2.6 0.00 0.00 0.00 61 979.0
20260902180404 93 19 0.9 2.6 0.00 0.00 0.00 60 979.3
20260902175859 93 8 0.9 2.6 0.00 0.00 0.00 60 979.1
20260902175354 93 210 0.9 2.6 0.00 0.00 0.00 61 979.1
20260902174850 93 220 1.7 1.7 0.00 0.00 0.00 60 979.2
20260902174347 93 5 2.6 3.5 0.00 0.00 0.00 57 979.3
20260902173843 92 19 0.0 1.7 0.00 0.00 0.00 58 979.3
20260902173342 92 26 0.9 1.7 0.00 0.00 0.00 63 979.3
20260902172836 92 5 0.0 1.7 0.00 0.00 0.00 64 979.4
20260902172336 92 52 1.7 3.5 0.00 0.00 0.00 60 979.3
20260902171831 92 348 1.7 6.1 0.00 0.00 0.00 59 979.6
20260902171327 92 300 0.9 1.7 0.00 0.00 0.00 60 979.4
20260902170823 92 7 1.7 2.6 0.00 0.00 0.00 63 979.6
20260902170318 91 239 3.5 3.5 0.00 0.00 0.00 61 979.6
20260902165814 92 315 3.5 5.2 0.00 0.00 0.00 60 979.7
20260902165313 92 119 1.7 1.7 0.00 0.00 0.00 62 979.6
20260902164808 91 310 0.0 0.9 0.00 0.00 0.00 63 979.7
20260902164303 91 238 0.9 5.2 0.00 0.00 0.00 62 979.7
20260902163757 91 10 1.7 5.2 0.00 0.00 0.00 66 979.7
20260902163257 91 305 3.5 5.2 0.00 0.00 0.00 61 979.8
20260902162755 90 278 0.0 3.5 0.00 0.00 0.00 64 979.8
20260902162251 90 6 0.9 1.7 0.00 0.00 0.00 67 979.7
20260902161750 89 253 0.0 3.5 0.00 0.00 0.00 65 979.9
20260902161246 89 258 1.7 3.5 0.00 0.00 0.00 64 979.8
20260902160743 89 357 0.9 3.5 0.00 0.00 0.00 66 979.7
20260902160243 89 304 3.5 5.2 0.00 0.00 0.00 64 979.8
20260902155741 89 31 0.9 0.9 0.00 0.00 0.00 70 979.8
20260902155239 89 41 1.7 2.6 0.00 0.00 0.00 65 979.9
20260902154735 88 72 0.0 5.2 0.00 0.00 0.00 68 979.8
20260902154231 88 262 1.7 2.6 0.00 0.00 0.00 67 980.0
20260902153729 88 28 0.0 1.7 0.00 0.00 0.00 69 980.0
20260902153229 88 353 0.9 1.7 0.00 0.00 0.00 68 979.8
20260902152725 87 3 0.9 1.7 0.00 0.00 0.00 69 980.0
20260902152221 87 299 0.0 0.9 0.00 0.00 0.00 69 979.9
20260902151716 87 248 0.9 2.6 0.00 0.00 0.00 71 980.1
20260902151211 86 262 0.9 1.7 0.00 0.00 0.00 71 979.9
20260902150706 85 258 0.0 1.7 0.00 0.00 0.00 74 979.9
20260902150203 86 163 0.9 2.6 0.00 0.00 0.00 74 980.1
20260902145701 86 142 0.9 2.6 0.00 0.00 0.00 72 979.8
20260902145201 86 235 0.0 1.7 0.00 0.00 0.00 74 980.0
20260902144658 85 183 0.0 0.9 0.00 0.00 0.00 75 979.9
20260902144153 85 268 0.0 0.9 0.00 0.00 0.00 75 980.0
20260902143653 85 146 0.9 1.7 0.00 0.00 0.00 76 979.8
20260902143149 85 254 0.0 0.9 0.00 0.00 0.00 76 979.9
20260902142644 84 171 0.0 1.7 0.00 0.00 0.00 77 979.7
20260902142140 83 251 0.0 0.9 0.00 0.00 0.00 79 979.8
20260902141639 83 250 0.0 1.7 0.00 0.00 0.00 78 979.8
20260902141135 82 190 0.0 2.6 0.00 0.00 0.00 80 979.8
20260902140630 82 312 0.0 0.9 0.00 0.00 0.00 81 979.6
20260902140125 82 218 0.0 0.9 0.00 0.00 0.00 81 979.5
20260902135625 81 202 0.9 1.7 0.00 0.00 0.00 81 979.6
20260902135120 81 68 0.0 1.7 0.00 0.00 0.00 82 979.7
20260902134616 81 236 0.0 0.9 0.00 0.00 0.00 84 979.6
20260902134115 80 214 0.0 0.9 0.00 0.00 0.00 85 979.5
20260902133616 79 354 0.9 0.9 0.00 0.00 0.00 86 979.7
20260902133110 79 243 0.0 0.0 0.00 0.00 0.00 88 979.7
20260902132606 79 250 0.0 0.0 0.00 0.00 0.00 88 979.8
20260902132101 79 330 0.0 0.0 0.00 0.00 0.00 89 979.7
20260902131557 78 342 0.0 1.7 0.00 0.00 0.00 88 979.7
20260902131057 78 338 0.0 0.0 0.00 0.00 0.00 91 979.9
20260902130553 77 338 0.0 0.0 0.00 0.00 0.00 91 979.8
20260902130048 77 338 0.0 0.0 0.00 0.00 0.00 91 979.6
20260902125544 76 338 0.9 0.9 0.00 0.00 0.00 92 979.8
20260902125040 76 242 0.0 0.0 0.00 0.00 0.00 93 979.7
20260902124537 75 242 0.0 0.0 0.00 0.00 0.00 94 979.5
20260902124036 75 179 0.0 0.0 0.00 0.00 0.00 96 979.6
20260902123532 74 179 0.0 0.9 0.00 0.00 0.00 97 979.6
20260902123032 74 315 0.0 0.0 0.00 0.00 0.00 97 979.5
20260902122531 74 349 0.0 0.0 0.00 0.00 0.00 98 979.5
20260902122027 73 336 0.0 0.0 0.00 0.00 0.00 98 979.6
20260902121527 73 342 0.0 0.0 0.00 0.00 0.00 98 979.6
20260902121023 73 344 0.0 0.0 0.00 0.00 0.00 98 979.6
20260902120519 73 344 0.0 0.0 0.00 0.00 0.00 98 979.5
20260902120015 73 344 0.0 0.0 0.00 0.00 0.00 98 979.7
20260902115510 72 344 0.0 0.0 0.00 0.00 0.00 97 979.7
20260902115007 73 344 0.0 0.0 0.00 0.00 0.00 97 979.7
20260902114501 73 344 0.0 0.0 0.00 0.00 0.00 97 979.6
20260902113956 73 351 0.0 0.0 0.00 0.00 0.00 96 979.4
20260902113452 73 354 0.0 0.0 0.00 0.00 0.00 96 979.6
20260902112951 73 6 0.0 0.0 0.00 0.00 0.00 95 979.5
20260902112448 73 6 0.0 0.0 0.00 0.00 0.00 95 979.6
20260902111944 73 6 0.0 0.0 0.00 0.00 0.00 94 979.5
20260902111440 74 6 0.0 0.0 0.00 0.00 0.00 94 979.5
20260902110936 74 20 0.0 0.0 0.00 0.00 0.00 94 979.8
20260902110431 74 280 0.0 0.0 0.00 0.00 0.00 95 979.7
20260902105931 73 4 0.0 0.0 0.00 0.00 0.00 95 979.7
20260902105427 73 327 0.0 0.0 0.00 0.00 0.00 95 979.7
20260902104921 73 280 0.0 0.0 0.00 0.00 0.00 96 979.7
20260902104417 73 315 0.0 0.0 0.00 0.00 0.00 96 979.6
20260902103916 74 293 0.0 0.0 0.00 0.00 0.00 96 979.6
20260902103412 74 311 0.0 0.0 0.00 0.00 0.00 95 979.6
20260902102907 74 336 0.0 0.0 0.00 0.00 0.00 96 979.7
20260902102404 74 339 0.0 0.9 0.00 0.00 0.00 96 979.8
20260902101900 74 306 0.0 0.0 0.00 0.00 0.00 97 979.7
20260902101355 74 354 0.0 0.0 0.00 0.00 0.00 97 979.5
20260902100854 74 342 0.0 0.9 0.00 0.00 0.00 97 979.6
20260902100354 74 328 0.0 0.0 0.00 0.00 0.00 97 979.6
20260902095849 74 342 0.0 0.0 0.00 0.00 0.00 97 979.3
20260902095343 74 344 0.0 0.0 0.00 0.00 0.00 97 979.6
20260902094843 74 345 0.0 0.0 0.00 0.00 0.00 97 979.6
20260902094339 74 345 0.0 0.0 0.00 0.00 0.00 97 979.2
20260902093838 74 346 0.0 0.0 0.00 0.00 0.00 97 979.4
20260902093334 74 346 0.0 0.0 0.00 0.00 0.00 97 979.4
20260902092832 74 346 0.0 0.0 0.00 0.00 0.00 97 979.3
20260902092329 74 346 0.0 0.0 0.00 0.00 0.00 97 979.3
20260902091828 74 347 0.0 0.0 0.00 0.00 0.00 96 979.3
20260902091324 74 347 0.0 0.0 0.00 0.00 0.00 96 979.2
20260902090821 75 346 0.0 0.0 0.00 0.00 0.00 96 978.9
20260902090320 75 347 0.0 0.0 0.00 0.00 0.00 96 979.3
20260902085819 75 347 0.0 0.0 0.00 0.00 0.00 96 978.9
20260902085315 75 347 0.0 0.0 0.00 0.00 0.00 96 979.0
20260902084810 75 340 0.0 0.0 0.00 0.00 0.00 96 979.2
20260902084307 75 345 0.0 0.0 0.00 0.00 0.00 96 979.1
20260902083802 75 348 0.0 0.0 0.00 0.00 0.00 96 979.1
20260902083301 75 329 0.0 0.9 0.00 0.00 0.00 96 979.1
20260902082756 75 332 0.0 0.0 0.00 0.00 0.00 96 979.0
20260902082253 75 25 0.0 0.9 0.00 0.00 0.00 96 979.2
20260902081749 75 15 0.0 0.0 0.00 0.00 0.00 96 978.9
20260902081244 75 15 0.0 0.9 0.00 0.00 0.00 97 979.1
20260902080739 75 328 0.0 0.0 0.00 0.00 0.00 97 978.8
20260902080236 75 17 0.0 0.0 0.00 0.00 0.00 97 978.8
20260902075736 76 0 0.0 0.0 0.00 0.00 0.00 97 979.0
20260902075232 75 358 0.0 0.9 0.00 0.00 0.00 97 979.0
20260902074731 75 338 0.0 0.9 0.00 0.00 0.00 97 978.9
20260902074227 75 200 0.9 0.9 0.00 0.00 0.00 98 979.0
20260902073722 75 1 0.0 0.0 0.00 0.00 0.00 98 978.9
20260902073218 75 238 0.0 1.7 0.00 0.00 0.00 99 979.0
20260902072714 75 246 0.0 0.9 0.00 0.00 0.00 99 979.0
20260902072210 75 351 0.0 0.9 0.00 0.00 0.00 99 978.9
20260902071706 75 348 0.0 0.9 0.00 0.00 0.00 99 979.0
20260902071201 75 342 0.0 0.0 0.00 0.00 0.00 99 978.8
20260902070658 75 330 0.0 0.9 0.00 0.00 0.00 99 978.9
20260902070157 75 330 0.0 0.9 0.00 0.00 0.00 99 978.9
20260902065655 75 339 0.0 0.0 0.00 0.00 0.00 99 978.8
20260902065151 75 335 0.0 0.9 0.00 0.00 0.00 99 978.9
20260902064647 75 340 0.0 0.9 0.00 0.00 0.00 99 978.9
20260902064142 74 355 0.0 0.0 0.00 0.00 0.00 99 979.0
20260902063638 74 335 0.0 0.0 0.00 0.00 0.00 99 978.9
20260902063132 74 331 0.0 0.0 0.00 0.00 0.00 99 978.8
20260902062631 74 330 0.0 0.0 0.00 0.00 0.00 99 978.8
20260902062127 74 329 0.0 0.0 0.00 0.00 0.00 99 978.9
20260902061626 74 5 0.0 0.0 0.00 0.00 0.00 99 978.7
20260902061122 74 305 0.0 0.0 0.00 0.00 0.00 99 979.0
20260902060618 74 297 0.0 0.0 0.00 0.00 0.00 99 978.9
20260902060114 74 318 0.0 0.0 0.00 0.00 0.00 99 979.1
20260902055610 74 330 0.0 0.0 0.00 0.00 0.00 99 979.3
20260902055105 73 330 0.0 0.0 0.00 0.00 0.00 99 979.1
20260902054600 73 294 0.0 0.0 0.00 0.00 0.00 99 979.2
20260902054056 72 291 0.0 0.0 0.00 0.00 0.00 99 979.4
20260902053551 72 246 0.0 0.0 0.00 0.00 0.00 99 979.3
20260902053050 72 246 0.0 0.0 0.00 0.00 0.00 99 979.2
20260902052545 72 246 0.0 0.0 0.00 0.00 0.00 99 979.3
20260902052041 72 246 0.0 0.0 0.00 0.00 0.00 99 979.5
20260902051540 72 246 0.0 0.0 0.00 0.00 0.00 99 979.4
20260902051039 72 246 0.0 0.0 0.00 0.00 0.00 99 979.5
20260902050534 72 259 0.0 0.0 0.00 0.00 0.00 99 979.3
20260902050030 73 292 0.0 0.0 0.00 0.00 0.00 99 979.1
20260902045526 73 314 0.0 0.0 0.00 0.00 0.00 99 979.2
20260902045022 73 314 0.0 0.0 0.00 0.00 0.00 99 979.0
20260902044521 73 314 0.0 0.0 0.00 0.00 0.00 99 979.2
20260902044017 73 314 0.0 0.0 0.00 0.00 0.00 99 979.1
20260902043512 74 315 0.0 0.0 0.00 0.00 0.00 99 979.2